User: anonymous   Login
Location: Spruce Knob
(38.6995°N, 79.5330°W)
Time: 21:05:06
(UTC-04:00)
Language:

MOZHAYETS 4 - Orbit

View from above orbital plane
View from above orbital plane
View from above satellite
View from above satellite

Ground track
Ground track

The orbit data is extracted from the following two-line orbital elements,

1 27939U 03042A   24141.86239196  .00003598  00000-0  60963-3 0  9997
2 27939  98.2874 297.6374 0012887 142.7620 354.6137 14.69860834104267
Epoch (UTC): 20 May 2024 20:41:50
Eccentricity: 0.0012887
inclination: 98.2874°
perigee height: 652 km
apogee height: 670 km
right ascension of ascending node: 297.6374°
argument of perigee: 142.7620°
revolutions per day: 14.69860834
mean anomaly at epoch: 354.6137°
orbit number at epoch: 10426

The dashed part of the orbit path shows where the satellite is in the earth's shadow,  

DLR